Time,TemperatureF,DewpointF,PressureIn,WindDirection,WindDirectionDegrees,WindSpeedMPH,WindSpeedGustMPH,Humidity,HourlyPrecipIn,Conditions,Clouds,dailyrainin,SoftwareType,DateUTC
2013-04-28 00:01:00,61.2,39.7,30.17,East,83,1.0,1.0,45,0.00,,,0.00,Wunderground v.1.15,2013-04-28 04:01:00,
2013-04-28 00:02:00,61.2,39.7,30.17,East,83,1.0,1.0,45,0.00,,,0.00,Wunderground v.1.15,2013-04-28 04:02:00,
2013-04-28 00:04:00,61.1,39.6,30.17,NE,51,1.0,1.0,45,0.00,,,0.00,Wunderground v.1.15,2013-04-28 04:04:00,
2013-04-28 00:05:00,61.1,40.1,30.17,ENE,60,1.0,1.0,46,0.00,,,0.00,Wunderground v.1.15,2013-04-28 04:05:00,
2013-04-28 00:07:00,61.0,40.1,30.17,ENE,60,1.0,1.0,46,0.00,,,0.00,Wunderground v.1.15,2013-04-28 04:07:00,
2013-04-28 00:12:00,60.9,40.0,30.16,ENE,62,0.0,1.0,46,0.00,,,0.00,Wunderground v.1.15,2013-04-28 04:12:00,
2013-04-28 00:17:00,60.7,39.8,30.16,NE,51,0.0,1.0,46,0.00,,,0.00,Wunderground v.1.15,2013-04-28 04:17:00,
2013-04-28 00:22:00,60.6,39.7,30.16,SE,129,0.0,0.0,46,0.00,,,0.00,Wunderground v.1.15,2013-04-28 04:22:00,
2013-04-28 00:28:00,60.4,39.5,30.16,SSW,202,0.0,2.0,46,0.00,,,0.00,Wunderground v.1.15,2013-04-28 04:28:00,
2013-04-28 00:33:00,60.3,40.0,30.16,East,79,0.0,0.0,47,0.00,,,0.00,Wunderground v.1.15,2013-04-28 04:33:00,
2013-04-28 00:38:00,60.1,41.4,30.16,ENE,61,0.0,2.0,50,0.00,,,0.00,Wunderground v.1.15,2013-04-28 04:38:00,
2013-04-28 00:43:00,59.6,39.9,30.17,SW,229,0.0,0.0,48,0.00,,,0.00,Wunderground v.1.15,2013-04-28 04:43:00,
2013-04-28 00:48:00,59.3,41.7,30.16,SW,229,0.0,0.0,52,0.00,,,0.00,Wunderground v.1.15,2013-04-28 04:48:00,
2013-04-28 00:54:00,58.6,40.5,30.16,ESE,120,0.0,0.0,51,0.00,,,0.00,Wunderground v.1.15,2013-04-28 04:54:00,
2013-04-28 00:59:00,58.2,42.6,30.16,ESE,120,0.0,0.0,56,0.00,,,0.00,Wunderground v.1.15,2013-04-28 04:59:00,
2013-04-28 01:05:00,57.8,41.3,30.16,ESE,120,0.0,0.0,54,0.00,,,0.00,Wunderground v.1.15,2013-04-28 05:05:00,
2013-04-28 01:10:00,57.7,40.7,30.16,SE,125,0.0,1.0,53,0.00,,,0.00,Wunderground v.1.15,2013-04-28 05:10:00,
2013-04-28 01:15:00,57.8,41.7,30.16,NNE,28,0.0,1.0,55,0.00,,,0.00,Wunderground v.1.15,2013-04-28 05:15:00,
2013-04-28 01:20:00,57.5,42.4,30.15,NNE,28,0.0,0.0,57,0.00,,,0.00,Wunderground v.1.15,2013-04-28 05:20:00,
2013-04-28 01:25:00,57.1,41.5,30.15,NNE,28,0.0,0.0,56,0.00,,,0.00,Wunderground v.1.15,2013-04-28 05:25:00,
2013-04-28 01:30:00,57.0,42.4,30.15,ENE,77,0.0,0.0,58,0.00,,,0.00,Wunderground v.1.15,2013-04-28 05:30:00,
2013-04-28 01:36:00,56.8,42.2,30.15,NW,325,0.0,0.0,58,0.00,,,0.00,Wunderground v.1.15,2013-04-28 05:36:00,
2013-04-28 01:42:00,56.3,42.1,30.15,NW,325,0.0,0.0,59,0.00,,,0.00,Wunderground v.1.15,2013-04-28 05:42:00,
2013-04-28 01:47:00,55.9,41.3,30.15,NW,325,0.0,0.0,58,0.00,,,0.00,Wunderground v.1.15,2013-04-28 05:47:00,
2013-04-28 01:52:00,55.7,42.0,30.15,NW,325,0.0,0.0,60,0.00,,,0.00,Wunderground v.1.15,2013-04-28 05:52:00,
2013-04-28 01:57:00,55.4,43.0,30.16,NW,325,0.0,0.0,63,0.00,,,0.00,Wunderground v.1.15,2013-04-28 05:57:00,
2013-04-28 02:03:00,55.2,43.2,30.16,NW,325,0.0,0.0,64,0.00,,,0.00,Wunderground v.1.15,2013-04-28 06:03:00,
2013-04-28 02:08:00,55.1,42.7,30.16,NW,325,0.0,0.0,63,0.00,,,0.00,Wunderground v.1.15,2013-04-28 06:08:00,
2013-04-28 02:14:00,55.0,42.2,30.15,NW,325,0.0,0.0,62,0.00,,,0.00,Wunderground v.1.15,2013-04-28 06:14:00,
2013-04-28 02:19:00,54.8,42.4,30.15,NW,325,0.0,0.0,63,0.00,,,0.00,Wunderground v.1.15,2013-04-28 06:19:00,
2013-04-28 02:24:00,54.5,43.0,30.15,NW,325,0.0,0.0,65,0.00,,,0.00,Wunderground v.1.15,2013-04-28 06:24:00,
2013-04-28 02:29:00,54.1,42.6,30.15,NW,325,0.0,0.0,65,0.00,,,0.00,Wunderground v.1.15,2013-04-28 06:29:00,
2013-04-28 02:34:00,53.8,42.7,30.15,NW,325,0.0,0.0,66,0.00,,,0.00,Wunderground v.1.15,2013-04-28 06:34:00,
2013-04-28 02:40:00,53.5,43.2,30.15,NW,325,0.0,0.0,68,0.00,,,0.00,Wunderground v.1.15,2013-04-28 06:40:00,
2013-04-28 02:45:00,53.2,42.5,30.14,NW,325,0.0,0.0,67,0.00,,,0.00,Wunderground v.1.15,2013-04-28 06:45:00,
2013-04-28 02:50:00,53.1,42.0,30.14,NW,325,0.0,0.0,66,0.00,,,0.00,Wunderground v.1.15,2013-04-28 06:50:00,
2013-04-28 02:55:00,53.1,42.0,30.13,NW,325,0.0,0.0,66,0.00,,,0.00,Wunderground v.1.15,2013-04-28 06:55:00,
2013-04-28 03:00:00,53.3,41.8,30.13,ENE,61,0.0,0.0,65,0.00,,,0.00,Wunderground v.1.15,2013-04-28 07:00:00,
2013-04-28 03:06:00,53.8,42.7,30.13,ENE,61,0.0,0.0,66,0.00,,,0.00,Wunderground v.1.15,2013-04-28 07:06:00,
2013-04-28 03:12:00,54.0,42.5,30.13,ENE,61,0.0,0.0,65,0.00,,,0.00,Wunderground v.1.15,2013-04-28 07:12:00,
2013-04-28 03:18:00,53.9,42.8,30.12,ENE,61,0.0,0.0,66,0.00,,,0.00,Wunderground v.1.15,2013-04-28 07:18:00,
2013-04-28 03:23:00,54.1,43.4,30.12,SSW,199,0.0,0.0,67,0.00,,,0.00,Wunderground v.1.15,2013-04-28 07:23:00,
2013-04-28 03:28:00,53.8,42.7,30.12,SSW,199,0.0,0.0,66,0.00,,,0.00,Wunderground v.1.15,2013-04-28 07:28:00,
2013-04-28 03:33:00,53.7,42.6,30.12,SSW,199,0.0,0.0,66,0.00,,,0.00,Wunderground v.1.15,2013-04-28 07:33:00,
2013-04-28 03:39:00,53.9,42.0,30.12,SSW,199,0.0,0.0,64,0.00,,,0.00,Wunderground v.1.15,2013-04-28 07:39:00,
2013-04-28 03:44:00,54.4,42.9,30.12,SSW,199,0.0,0.0,65,0.00,,,0.00,Wunderground v.1.15,2013-04-28 07:44:00,
2013-04-28 03:49:00,54.1,42.2,30.12,SSW,199,0.0,0.0,64,0.00,,,0.00,Wunderground v.1.15,2013-04-28 07:49:00,
2013-04-28 03:54:00,53.9,43.2,30.12,SSW,199,0.0,0.0,67,0.00,,,0.00,Wunderground v.1.15,2013-04-28 07:54:00,
2013-04-28 03:59:00,53.6,42.9,30.12,SSW,199,0.0,0.0,67,0.00,,,0.00,Wunderground v.1.15,2013-04-28 07:59:00,
2013-04-28 04:05:00,53.1,42.8,30.12,SSW,199,0.0,0.0,68,0.00,,,0.00,Wunderground v.1.15,2013-04-28 08:05:00,
2013-04-28 04:10:00,52.7,42.4,30.12,SSW,199,0.0,0.0,68,0.00,,,0.00,Wunderground v.1.15,2013-04-28 08:10:00,
2013-04-28 04:15:00,52.4,42.9,30.12,SSW,199,0.0,0.0,70,0.00,,,0.00,Wunderground v.1.15,2013-04-28 08:15:00,
2013-04-28 04:21:00,52.4,41.8,30.12,SSW,198,0.0,0.0,67,0.00,,,0.00,Wunderground v.1.15,2013-04-28 08:21:00,
2013-04-28 04:27:00,52.5,41.5,30.11,South,182,0.0,0.0,66,0.00,,,0.00,Wunderground v.1.15,2013-04-28 08:27:00,
2013-04-28 04:32:00,52.8,41.7,30.11,South,181,0.0,0.0,66,0.00,,,0.00,Wunderground v.1.15,2013-04-28 08:32:00,
2013-04-28 04:37:00,53.2,41.7,30.11,South,181,0.0,0.0,65,0.00,,,0.00,Wunderground v.1.15,2013-04-28 08:37:00,
2013-04-28 04:42:00,53.5,42.4,30.11,South,181,0.0,0.0,66,0.00,,,0.00,Wunderground v.1.15,2013-04-28 08:42:00,
2013-04-28 04:47:00,53.9,41.6,30.11,South,181,0.0,0.0,63,0.00,,,0.00,Wunderground v.1.15,2013-04-28 08:47:00,
2013-04-28 04:52:00,54.3,42.0,30.11,South,184,0.0,0.0,63,0.00,,,0.00,Wunderground v.1.15,2013-04-28 08:52:00,
2013-04-28 04:58:00,54.5,42.6,30.11,South,184,0.0,0.0,64,0.00,,,0.00,Wunderground v.1.15,2013-04-28 08:58:00,
2013-04-28 05:03:00,54.4,42.1,30.11,South,184,0.0,0.0,63,0.00,,,0.00,Wunderground v.1.15,2013-04-28 09:03:00,
2013-04-28 05:08:00,54.4,41.6,30.11,West,261,0.0,0.0,62,0.00,,,0.00,Wunderground v.1.15,2013-04-28 09:08:00,
2013-04-28 05:13:00,54.6,41.8,30.11,West,261,0.0,0.0,62,0.00,,,0.00,Wunderground v.1.15,2013-04-28 09:13:00,
2013-04-28 05:18:00,54.6,41.8,30.11,West,261,0.0,0.0,62,0.00,,,0.00,Wunderground v.1.15,2013-04-28 09:18:00,
2013-04-28 05:24:00,54.6,42.3,30.11,West,261,0.0,0.0,63,0.00,,,0.00,Wunderground v.1.15,2013-04-28 09:24:00,
2013-04-28 05:29:00,54.0,42.1,30.11,West,261,0.0,0.0,64,0.00,,,0.00,Wunderground v.1.15,2013-04-28 09:29:00,
2013-04-28 05:34:00,53.3,42.6,30.11,West,261,0.0,0.0,67,0.00,,,0.00,Wunderground v.1.15,2013-04-28 09:34:00,
2013-04-28 05:39:00,53.0,41.9,30.11,WNW,288,0.0,0.0,66,0.00,,,0.00,Wunderground v.1.15,2013-04-28 09:39:00,
2013-04-28 05:44:00,53.3,42.2,30.11,NNW,345,0.0,1.0,66,0.00,,,0.00,Wunderground v.1.15,2013-04-28 09:44:00,
2013-04-28 05:49:00,53.4,42.3,30.11,NNW,345,0.0,1.0,66,0.00,,,0.00,Wunderground v.1.15,2013-04-28 09:49:00,
2013-04-28 05:54:00,53.5,42.0,30.11,ENE,71,0.0,1.0,65,0.00,,,0.00,Wunderground v.1.15,2013-04-28 09:54:00,
2013-04-28 06:00:00,54.0,42.1,30.11,ESE,115,0.0,0.0,64,0.00,,,0.00,Wunderground v.1.15,2013-04-28 10:00:00,
2013-04-28 06:06:00,54.3,41.6,30.10,NE,51,0.0,1.0,62,0.00,,,0.00,Wunderground v.1.15,2013-04-28 10:06:00,
2013-04-28 06:11:00,54.6,41.8,30.10,East,101,0.0,0.0,62,0.00,,,0.00,Wunderground v.1.15,2013-04-28 10:11:00,
2013-04-28 06:16:00,54.7,41.9,30.10,East,101,0.0,0.0,62,0.00,,,0.00,Wunderground v.1.15,2013-04-28 10:16:00,
2013-04-28 06:21:00,54.8,42.0,30.10,East,88,0.0,0.0,62,0.00,,,0.00,Wunderground v.1.15,2013-04-28 10:21:00,
2013-04-28 06:26:00,54.8,42.0,30.10,East,88,0.0,0.0,62,0.00,,,0.00,Wunderground v.1.15,2013-04-28 10:26:00,
2013-04-28 06:31:00,54.7,41.9,30.10,East,88,0.0,0.0,62,0.00,,,0.00,Wunderground v.1.15,2013-04-28 10:31:00,
2013-04-28 06:37:00,54.7,41.9,30.10,East,88,0.0,0.0,62,0.00,,,0.00,Wunderground v.1.15,2013-04-28 10:37:00,
2013-04-28 06:42:00,54.8,42.0,30.10,East,88,0.0,0.0,62,0.00,,,0.00,Wunderground v.1.15,2013-04-28 10:42:00,
2013-04-28 06:47:00,55.0,42.2,30.10,East,84,0.0,1.0,62,0.00,,,0.00,Wunderground v.1.15,2013-04-28 10:47:00,
2013-04-28 06:52:00,55.2,42.4,30.10,East,84,0.0,0.0,62,0.00,,,0.00,Wunderground v.1.15,2013-04-28 10:52:00,
2013-04-28 06:58:00,55.3,42.1,30.10,NNW,329,0.0,0.0,61,0.00,,,0.00,Wunderground v.1.15,2013-04-28 10:58:00,
2013-04-28 07:03:00,55.5,42.3,30.10,SSE,161,0.0,1.0,61,0.00,,,0.00,Wunderground v.1.15,2013-04-28 11:03:00,
2013-04-28 07:08:00,55.6,42.4,30.10,SSE,165,0.0,1.0,61,0.00,,,0.00,Wunderground v.1.15,2013-04-28 11:08:00,
2013-04-28 07:13:00,55.7,42.9,30.09,SSE,165,0.0,0.0,62,0.00,,,0.00,Wunderground v.1.15,2013-04-28 11:13:00,
2013-04-28 07:19:00,55.9,42.6,30.10,SSW,199,0.0,2.0,61,0.00,,,0.00,Wunderground v.1.15,2013-04-28 11:19:00,
2013-04-28 07:24:00,55.9,42.6,30.09,SSW,198,0.0,1.0,61,0.00,,,0.00,Wunderground v.1.15,2013-04-28 11:24:00,
2013-04-28 07:29:00,56.1,42.8,30.09,East,98,0.0,2.0,61,0.00,,,0.00,Wunderground v.1.15,2013-04-28 11:29:00,
2013-04-28 07:34:00,56.3,43.0,30.09,SE,144,0.0,2.0,61,0.00,,,0.00,Wunderground v.1.15,2013-04-28 11:34:00,
2013-04-28 07:40:00,56.6,42.9,30.09,ESE,109,0.0,0.0,60,0.00,,,0.00,Wunderground v.1.15,2013-04-28 11:40:00,
2013-04-28 07:45:00,56.8,43.5,30.09,SE,129,0.0,2.0,61,0.00,,,0.00,Wunderground v.1.15,2013-04-28 11:45:00,
2013-04-28 07:50:00,57.1,42.9,30.09,ESE,103,1.0,1.0,59,0.00,,,0.00,Wunderground v.1.15,2013-04-28 11:50:00,
2013-04-28 07:55:00,57.2,43.0,30.09,SE,138,1.0,1.0,59,0.00,,,0.00,Wunderground v.1.15,2013-04-28 11:55:00,
2013-04-28 08:00:00,57.3,43.5,30.09,SE,126,1.0,3.0,60,0.00,,,0.00,Wunderground v.1.15,2013-04-28 12:00:00,
2013-04-28 08:06:00,57.5,43.7,30.09,SE,126,1.0,3.0,60,0.00,,,0.00,Wunderground v.1.15,2013-04-28 12:06:00,
2013-04-28 08:11:00,57.6,43.4,30.09,NNE,25,0.0,3.0,59,0.00,,,0.00,Wunderground v.1.15,2013-04-28 12:11:00,
2013-04-28 08:16:00,57.8,44.0,30.08,East,86,0.0,3.0,60,0.00,,,0.00,Wunderground v.1.15,2013-04-28 12:16:00,
2013-04-28 08:21:00,58.0,44.2,30.08,NE,38,0.0,0.0,60,0.00,,,0.00,Wunderground v.1.15,2013-04-28 12:21:00,
2013-04-28 08:27:00,58.1,44.3,30.08,ESE,114,0.0,2.0,60,0.00,,,0.00,Wunderground v.1.15,2013-04-28 12:27:00,
2013-04-28 08:32:00,58.3,43.6,30.08,North,351,0.0,0.0,58,0.00,,,0.00,Wunderground v.1.15,2013-04-28 12:32:00,
2013-04-28 08:37:00,58.6,44.8,30.08,East,98,0.0,3.0,60,0.00,,,0.00,Wunderground v.1.15,2013-04-28 12:37:00,
2013-04-28 08:42:00,58.8,44.5,30.08,ESE,115,1.0,2.0,59,0.00,,,0.00,Wunderground v.1.15,2013-04-28 12:42:00,
2013-04-28 08:48:00,59.0,44.7,30.08,SE,132,1.0,2.0,59,0.00,,,0.00,Wunderground v.1.15,2013-04-28 12:48:00,
2013-04-28 08:53:00,59.2,44.4,30.08,SE,143,1.0,2.0,58,0.00,,,0.00,Wunderground v.1.15,2013-04-28 12:53:00,
2013-04-28 08:58:00,59.4,45.1,30.08,NNE,22,1.0,3.0,59,0.00,,,0.00,Wunderground v.1.15,2013-04-28 12:58:00,
2013-04-28 09:03:00,59.6,44.8,30.08,South,177,1.0,5.0,58,0.00,,,0.00,Wunderground v.1.15,2013-04-28 13:03:00,
2013-04-28 09:09:00,59.7,45.3,30.08,ENE,61,1.0,6.0,59,0.00,,,0.00,Wunderground v.1.15,2013-04-28 13:09:00,
2013-04-28 09:14:00,59.8,45.0,30.08,NE,53,1.0,9.0,58,0.00,,,0.00,Wunderground v.1.15,2013-04-28 13:14:00,
2013-04-28 09:19:00,59.9,45.5,30.08,ESE,103,1.0,9.0,59,0.00,,,0.00,Wunderground v.1.15,2013-04-28 13:19:00,
2013-04-28 09:25:00,60.0,45.2,30.08,SSW,207,1.0,3.0,58,0.00,,,0.00,Wunderground v.1.15,2013-04-28 13:25:00,
2013-04-28 09:30:00,60.0,45.6,30.08,SSW,196,1.0,1.0,59,0.00,,,0.00,Wunderground v.1.15,2013-04-28 13:30:00,
2013-04-28 09:35:00,60.0,45.6,30.07,SE,146,0.0,3.0,59,0.00,,,0.00,Wunderground v.1.15,2013-04-28 13:35:00,
2013-04-28 09:40:00,60.0,45.6,30.08,SSW,194,0.0,0.0,59,0.00,,,0.00,Wunderground v.1.15,2013-04-28 13:40:00,
2013-04-28 09:45:00,60.1,46.2,30.08,ENE,63,1.0,5.0,60,0.00,,,0.00,Wunderground v.1.15,2013-04-28 13:45:00,
2013-04-28 09:51:00,60.1,45.3,30.08,SSW,200,1.0,2.0,58,0.00,,,0.00,Wunderground v.1.15,2013-04-28 13:51:00,
2013-04-28 09:57:00,60.2,45.8,30.07,East,93,0.0,2.0,59,0.00,,,0.00,Wunderground v.1.15,2013-04-28 13:57:00,
2013-04-28 10:02:00,60.2,45.8,30.08,SSW,203,1.0,1.0,59,0.00,,,0.00,Wunderground v.1.15,2013-04-28 14:02:00,
2013-04-28 10:07:00,60.2,46.7,30.08,ESE,117,1.0,2.0,61,0.00,,,0.00,Wunderground v.1.15,2013-04-28 14:07:00,
2013-04-28 10:12:00,60.1,46.6,30.08,SSW,211,1.0,4.0,61,0.00,,,0.00,Wunderground v.1.15,2013-04-28 14:12:00,
2013-04-28 10:18:00,59.8,47.6,30.08,WSW,240,1.0,4.0,64,0.00,,,0.00,Wunderground v.1.15,2013-04-28 14:18:00,
2013-04-28 10:23:00,59.4,49.2,30.09,SSW,203,1.0,3.0,69,0.00,,,0.00,Wunderground v.1.15,2013-04-28 14:23:00,
2013-04-28 10:28:00,58.7,48.6,30.09,SSE,156,2.0,3.0,69,0.00,,,0.01,Wunderground v.1.15,2013-04-28 14:28:00,
2013-04-28 10:34:00,58.1,50.9,30.09,ESE,102,1.0,1.0,77,0.00,,,0.01,Wunderground v.1.15,2013-04-28 14:34:00,
2013-04-28 10:39:00,57.5,51.0,30.09,ESE,102,0.0,1.0,79,0.06,,,0.02,Wunderground v.1.15,2013-04-28 14:39:00,
2013-04-28 10:44:00,57.0,49.9,30.09,SSW,198,0.0,0.0,77,0.06,,,0.02,Wunderground v.1.15,2013-04-28 14:44:00,
2013-04-28 10:49:00,56.7,50.3,30.09,SE,129,1.0,5.0,79,0.05,,,0.02,Wunderground v.1.15,2013-04-28 14:49:00,
2013-04-28 10:55:00,56.4,50.6,30.09,South,175,1.0,2.0,81,0.04,,,0.03,Wunderground v.1.15,2013-04-28 14:55:00,
2013-04-28 11:00:00,56.3,51.2,30.09,South,175,0.0,0.0,83,0.04,,,0.03,Wunderground v.1.15,2013-04-28 15:00:00,
2013-04-28 11:06:00,56.0,51.2,30.09,NNE,33,0.0,0.0,84,0.04,,,0.03,Wunderground v.1.15,2013-04-28 15:06:00,
2013-04-28 11:11:00,55.9,51.5,30.09,North,9,0.0,0.0,85,0.04,,,0.04,Wunderground v.1.15,2013-04-28 15:11:00,
2013-04-28 11:16:00,55.8,51.4,30.08,North,9,0.0,0.0,85,0.04,,,0.04,Wunderground v.1.15,2013-04-28 15:16:00,
2013-04-28 11:22:00,55.8,51.7,30.08,North,9,0.0,0.0,86,0.04,,,0.04,Wunderground v.1.15,2013-04-28 15:22:00,
2013-04-28 11:27:00,55.8,51.7,30.08,North,9,0.0,0.0,86,0.05,,,0.05,Wunderground v.1.15,2013-04-28 15:27:00,
2013-04-28 11:32:00,55.7,51.3,30.08,SSW,205,0.0,0.0,85,0.05,,,0.05,Wunderground v.1.15,2013-04-28 15:32:00,
2013-04-28 11:37:00,55.7,50.9,30.08,ESE,122,0.0,2.0,84,0.04,,,0.05,Wunderground v.1.15,2013-04-28 15:37:00,
2013-04-28 11:43:00,55.7,51.6,30.08,ESE,112,0.0,0.0,86,0.00,,,0.06,Wunderground v.1.15,2013-04-28 15:43:00,
2013-04-28 11:48:00,55.6,51.2,30.08,NNE,19,0.0,2.0,85,0.00,,,0.06,Wunderground v.1.15,2013-04-28 15:48:00,
2013-04-28 11:53:00,55.6,51.5,30.08,NNE,19,0.0,0.0,86,0.00,,,0.06,Wunderground v.1.15,2013-04-28 15:53:00,
2013-04-28 11:58:00,55.5,51.4,30.08,NNE,32,0.0,1.0,86,0.04,,,0.07,Wunderground v.1.15,2013-04-28 15:58:00,
2013-04-28 12:04:00,55.4,51.3,30.07,ENE,65,0.0,2.0,86,0.04,,,0.07,Wunderground v.1.15,2013-04-28 16:04:00,
2013-04-28 12:09:00,55.3,51.2,30.07,ENE,76,1.0,8.0,86,0.08,,,0.08,Wunderground v.1.15,2013-04-28 16:09:00,
2013-04-28 12:15:00,55.3,51.5,30.07,SSE,158,1.0,2.0,87,0.09,,,0.09,Wunderground v.1.15,2013-04-28 16:15:00,
2013-04-28 12:20:00,55.1,51.3,30.07,South,182,0.0,0.0,87,0.07,,,0.09,Wunderground v.1.15,2013-04-28 16:20:00,
2013-04-28 12:25:00,55.1,51.3,30.07,West,270,1.0,2.0,87,0.07,,,0.10,Wunderground v.1.15,2013-04-28 16:25:00,
2013-04-28 12:31:00,55.0,51.5,30.07,North,9,1.0,1.0,88,0.06,,,0.11,Wunderground v.1.15,2013-04-28 16:31:00,
2013-04-28 12:37:00,55.1,51.9,30.07,ENE,71,0.0,1.0,89,0.06,,,0.11,Wunderground v.1.15,2013-04-28 16:37:00,
2013-04-28 12:42:00,55.0,51.5,30.06,NE,52,0.0,1.0,88,0.07,,,0.12,Wunderground v.1.15,2013-04-28 16:42:00,
2013-04-28 12:47:00,55.1,51.9,30.06,East,81,1.0,1.0,89,0.07,,,0.12,Wunderground v.1.15,2013-04-28 16:47:00,
2013-04-28 12:52:00,55.0,51.8,30.06,ENE,68,1.0,3.0,89,0.05,,,0.12,Wunderground v.1.15,2013-04-28 16:52:00,
2013-04-28 12:58:00,55.1,51.9,30.06,ESE,111,1.0,3.0,89,0.04,,,0.13,Wunderground v.1.15,2013-04-28 16:58:00,
2013-04-28 13:03:00,55.2,52.0,30.06,South,175,1.0,4.0,89,0.04,,,0.13,Wunderground v.1.15,2013-04-28 17:03:00,
2013-04-28 13:08:00,55.2,52.0,30.06,South,170,1.0,4.0,89,0.04,,,0.13,Wunderground v.1.15,2013-04-28 17:08:00,
2013-04-28 13:14:00,55.3,52.1,30.05,NE,53,1.0,2.0,89,0.00,,,0.13,Wunderground v.1.15,2013-04-28 17:14:00,
2013-04-28 13:19:00,55.3,52.1,30.05,South,178,0.0,2.0,89,0.00,,,0.14,Wunderground v.1.15,2013-04-28 17:19:00,
2013-04-28 13:24:00,55.3,52.1,30.05,ESE,109,1.0,9.0,89,0.00,,,0.14,Wunderground v.1.15,2013-04-28 17:24:00,
2013-04-28 13:30:00,55.4,52.2,30.05,SSE,161,1.0,1.0,89,0.00,,,0.14,Wunderground v.1.15,2013-04-28 17:30:00,
2013-04-28 13:35:00,55.7,52.5,30.04,NE,38,1.0,2.0,89,0.00,,,0.14,Wunderground v.1.15,2013-04-28 17:35:00,
2013-04-28 13:40:00,55.9,52.7,30.04,SE,127,1.0,3.0,89,0.00,,,0.14,Wunderground v.1.15,2013-04-28 17:40:00,
2013-04-28 13:45:00,56.0,52.5,30.04,WNW,302,1.0,4.0,88,0.00,,,0.14,Wunderground v.1.15,2013-04-28 17:45:00,
2013-04-28 13:51:00,56.2,52.7,30.04,ESE,110,2.0,2.0,88,0.00,,,0.14,Wunderground v.1.15,2013-04-28 17:51:00,
2013-04-28 13:57:00,56.3,52.8,30.04,NE,54,1.0,7.0,88,0.00,,,0.14,Wunderground v.1.15,2013-04-28 17:57:00,
2013-04-28 14:02:00,56.3,52.8,30.03,North,355,1.0,1.0,88,0.00,,,0.14,Wunderground v.1.15,2013-04-28 18:02:00,
2013-04-28 14:07:00,56.3,52.5,30.03,SE,133,1.0,3.0,87,0.00,,,0.15,Wunderground v.1.15,2013-04-28 18:07:00,
2013-04-28 14:13:00,56.1,52.3,30.03,ESE,119,2.0,5.0,87,0.00,,,0.15,Wunderground v.1.15,2013-04-28 18:13:00,
2013-04-28 14:18:00,56.0,52.5,30.03,ENE,59,2.0,5.0,88,0.00,,,0.15,Wunderground v.1.15,2013-04-28 18:18:00,
2013-04-28 14:23:00,55.8,52.0,30.03,East,88,2.0,3.0,87,0.00,,,0.15,Wunderground v.1.15,2013-04-28 18:23:00,
2013-04-28 14:28:00,55.7,51.9,30.03,South,178,2.0,3.0,87,0.00,,,0.15,Wunderground v.1.15,2013-04-28 18:28:00,
2013-04-28 14:34:00,55.7,52.2,30.02,NNE,17,1.0,2.0,88,0.00,,,0.15,Wunderground v.1.15,2013-04-28 18:34:00,
2013-04-28 14:39:00,55.6,51.8,30.01,ESE,106,1.0,2.0,87,0.00,,,0.15,Wunderground v.1.15,2013-04-28 18:39:00,
2013-04-28 14:44:00,55.6,51.8,30.01,ESE,115,1.0,9.0,87,0.00,,,0.15,Wunderground v.1.15,2013-04-28 18:44:00,
2013-04-28 14:50:00,55.7,52.2,30.01,South,171,2.0,2.0,88,0.00,,,0.15,Wunderground v.1.15,2013-04-28 18:50:00,
2013-04-28 14:55:00,55.7,52.2,30.01,SE,126,1.0,3.0,88,0.00,,,0.15,Wunderground v.1.15,2013-04-28 18:55:00,
2013-04-28 15:00:00,55.7,51.9,30.01,SSE,147,1.0,1.0,87,0.00,,,0.15,Wunderground v.1.15,2013-04-28 19:00:00,
2013-04-28 15:06:00,55.7,51.9,30.01,NNE,30,1.0,2.0,87,0.00,,,0.15,Wunderground v.1.15,2013-04-28 19:06:00,
2013-04-28 15:11:00,55.8,52.0,30.00,WNW,284,1.0,2.0,87,0.00,,,0.15,Wunderground v.1.15,2013-04-28 19:11:00,
2013-04-28 15:17:00,55.7,51.9,30.00,East,95,1.0,3.0,87,0.00,,,0.15,Wunderground v.1.15,2013-04-28 19:17:00,
2013-04-28 15:22:00,55.8,51.7,30.00,SSW,195,2.0,4.0,86,0.00,,,0.15,Wunderground v.1.15,2013-04-28 19:22:00,
2013-04-28 15:27:00,55.9,51.8,30.00,ENE,69,1.0,4.0,86,0.00,,,0.15,Wunderground v.1.15,2013-04-28 19:27:00,
2013-04-28 15:32:00,56.0,51.9,30.01,SSE,168,1.0,2.0,86,0.00,,,0.15,Wunderground v.1.15,2013-04-28 19:32:00,
2013-04-28 15:38:00,56.2,51.7,30.00,NNE,16,1.0,2.0,85,0.00,,,0.15,Wunderground v.1.15,2013-04-28 19:38:00,
2013-04-28 15:44:00,56.4,51.9,30.00,NE,48,1.0,3.0,85,0.00,,,0.15,Wunderground v.1.15,2013-04-28 19:44:00,
2013-04-28 15:49:00,56.5,52.0,29.99,South,184,1.0,3.0,85,0.00,,,0.15,Wunderground v.1.15,2013-04-28 19:49:00,
2013-04-28 15:54:00,56.6,52.1,29.99,ESE,105,1.0,1.0,85,0.00,,,0.15,Wunderground v.1.15,2013-04-28 19:54:00,
2013-04-28 15:59:00,56.8,52.0,29.99,ESE,111,1.0,2.0,84,0.00,,,0.15,Wunderground v.1.15,2013-04-28 19:59:00,
2013-04-28 16:05:00,57.0,52.2,29.98,SSE,161,1.0,3.0,84,0.00,,,0.15,Wunderground v.1.15,2013-04-28 20:05:00,
2013-04-28 16:10:00,57.2,52.1,29.98,SSE,157,1.0,1.0,83,0.00,,,0.15,Wunderground v.1.15,2013-04-28 20:10:00,
2013-04-28 16:15:00,57.4,52.3,29.98,ESE,116,1.0,2.0,83,0.00,,,0.15,Wunderground v.1.15,2013-04-28 20:15:00,
2013-04-28 16:20:00,57.6,52.5,29.98,South,177,1.0,1.0,83,0.00,,,0.15,Wunderground v.1.15,2013-04-28 20:20:00,
2013-04-28 16:26:00,57.7,52.2,29.99,ENE,74,1.0,1.0,82,0.00,,,0.15,Wunderground v.1.15,2013-04-28 20:26:00,
2013-04-28 16:32:00,57.7,51.9,29.99,SSW,212,1.0,3.0,81,0.00,,,0.15,Wunderground v.1.15,2013-04-28 20:32:00,
2013-04-28 16:37:00,57.6,51.8,29.98,North,355,1.0,3.0,81,0.00,,,0.15,Wunderground v.1.15,2013-04-28 20:37:00,
2013-04-28 16:44:00,57.6,51.5,29.98,SE,132,1.0,6.0,80,0.00,,,0.15,Wunderground v.1.15,2013-04-28 20:44:00,
2013-04-28 16:49:00,57.7,51.6,29.98,ENE,62,1.0,6.0,80,0.00,,,0.15,Wunderground v.1.15,2013-04-28 20:49:00,
2013-04-28 16:54:00,57.7,52.6,29.98,ENE,62,0.0,1.0,83,0.00,,,0.16,Wunderground v.1.15,2013-04-28 20:54:00,
2013-04-28 17:00:00,57.4,52.3,29.98,ENE,67,1.0,2.0,83,0.00,,,0.16,Wunderground v.1.15,2013-04-28 21:00:00,
2013-04-28 17:06:00,57.3,52.2,29.97,NNE,19,1.0,2.0,83,0.00,,,0.16,Wunderground v.1.15,2013-04-28 21:06:00,
2013-04-28 17:11:00,57.3,52.2,29.97,SSW,206,1.0,3.0,83,0.00,,,0.16,Wunderground v.1.15,2013-04-28 21:11:00,
2013-04-28 17:16:00,57.5,52.7,29.97,NE,44,0.0,3.0,84,0.00,,,0.16,Wunderground v.1.15,2013-04-28 21:16:00,
2013-04-28 17:21:00,57.6,52.1,29.97,NE,53,1.0,1.0,82,0.00,,,0.16,Wunderground v.1.15,2013-04-28 21:21:00,
2013-04-28 17:27:00,57.7,52.2,29.97,ENE,59,0.0,1.0,82,0.00,,,0.16,Wunderground v.1.15,2013-04-28 21:27:00,
2013-04-28 17:32:00,57.9,52.4,29.97,ESE,118,0.0,1.0,82,0.00,,,0.16,Wunderground v.1.15,2013-04-28 21:32:00,
2013-04-28 17:37:00,58.1,52.3,29.96,NNE,24,1.0,4.0,81,0.00,,,0.16,Wunderground v.1.15,2013-04-28 21:37:00,
2013-04-28 17:42:00,58.3,51.5,29.96,SE,132,1.0,4.0,78,0.00,,,0.16,Wunderground v.1.15,2013-04-28 21:42:00,
2013-04-28 17:48:00,58.4,51.9,29.96,ESE,107,1.0,4.0,79,0.00,,,0.16,Wunderground v.1.15,2013-04-28 21:48:00,
2013-04-28 17:53:00,58.5,52.0,29.96,SE,132,1.0,4.0,79,0.00,,,0.16,Wunderground v.1.15,2013-04-28 21:53:00,
2013-04-28 17:58:00,58.6,51.4,29.96,ENE,76,2.0,4.0,77,0.00,,,0.16,Wunderground v.1.15,2013-04-28 21:58:00,
2013-04-28 18:04:00,58.7,51.2,29.96,SSW,206,1.0,4.0,76,0.00,,,0.17,Wunderground v.1.15,2013-04-28 22:04:00,
2013-04-28 18:09:00,58.9,51.7,29.96,South,173,1.0,8.0,77,0.00,,,0.17,Wunderground v.1.15,2013-04-28 22:09:00,
2013-04-28 18:14:00,59.0,51.4,29.96,SE,141,2.0,4.0,76,0.00,,,0.17,Wunderground v.1.15,2013-04-28 22:14:00,
2013-04-28 18:19:00,59.0,51.4,29.95,SSW,200,2.0,4.0,76,0.00,,,0.17,Wunderground v.1.15,2013-04-28 22:19:00,
2013-04-28 18:24:00,58.9,51.0,29.95,SW,229,1.0,4.0,75,0.00,,,0.17,Wunderground v.1.15,2013-04-28 22:24:00,
2013-04-28 18:30:00,58.8,50.9,29.95,SW,225,1.0,2.0,75,0.00,,,0.17,Wunderground v.1.15,2013-04-28 22:30:00,
2013-04-28 18:35:00,58.7,50.8,29.95,SSE,164,2.0,6.0,75,0.00,,,0.17,Wunderground v.1.15,2013-04-28 22:35:00,
2013-04-28 18:40:00,58.6,50.3,29.95,SSE,162,2.0,2.0,74,0.00,,,0.17,Wunderground v.1.15,2013-04-28 22:40:00,
2013-04-28 18:45:00,58.5,50.6,29.95,South,184,1.0,2.0,75,0.00,,,0.17,Wunderground v.1.15,2013-04-28 22:45:00,
2013-04-28 18:50:00,58.3,50.4,29.95,East,97,1.0,1.0,75,0.00,,,0.17,Wunderground v.1.15,2013-04-28 22:50:00,
2013-04-28 18:56:00,58.1,50.9,29.95,South,178,1.0,2.0,77,0.00,,,0.17,Wunderground v.1.15,2013-04-28 22:56:00,
2013-04-28 19:01:00,57.8,50.6,29.95,West,281,1.0,2.0,77,0.00,,,0.17,Wunderground v.1.15,2013-04-28 23:01:00,
2013-04-28 19:07:00,57.5,51.0,29.95,SSE,155,1.0,7.0,79,0.00,,,0.18,Wunderground v.1.15,2013-04-28 23:07:00,
2013-04-28 19:12:00,57.0,50.9,29.96,NNE,21,1.0,1.0,80,0.00,,,0.18,Wunderground v.1.15,2013-04-28 23:12:00,
2013-04-28 19:17:00,56.6,50.8,29.95,ESE,122,1.0,3.0,81,0.00,,,0.18,Wunderground v.1.15,2013-04-28 23:17:00,
2013-04-28 19:23:00,56.3,50.9,29.96,SE,136,1.0,3.0,82,0.00,,,0.18,Wunderground v.1.15,2013-04-28 23:23:00,
2013-04-28 19:28:00,56.2,50.8,29.95,NE,48,1.0,3.0,82,0.00,,,0.18,Wunderground v.1.15,2013-04-28 23:28:00,
2013-04-28 19:33:00,56.1,50.7,29.95,SE,135,1.0,2.0,82,0.00,,,0.18,Wunderground v.1.15,2013-04-28 23:33:00,
2013-04-28 19:39:00,56.2,50.1,29.96,SW,224,1.0,7.0,80,0.00,,,0.18,Wunderground v.1.15,2013-04-28 23:39:00,
2013-04-28 19:44:00,56.3,50.5,29.96,SE,138,2.0,5.0,81,0.00,,,0.18,Wunderground v.1.15,2013-04-28 23:44:00,
2013-04-28 19:49:00,56.3,50.2,29.96,ENE,69,2.0,5.0,80,0.00,,,0.18,Wunderground v.1.15,2013-04-28 23:49:00,
2013-04-28 19:54:00,56.3,50.2,29.96,WNW,300,2.0,4.0,80,0.00,,,0.18,Wunderground v.1.15,2013-04-28 23:54:00,
2013-04-28 20:00:00,56.2,50.1,29.97,SSW,208,2.0,5.0,80,0.00,,,0.18,Wunderground v.1.15,2013-04-29 00:00:00,
2013-04-28 20:06:00,56.3,50.2,29.96,SE,144,1.0,5.0,80,0.00,,,0.18,Wunderground v.1.15,2013-04-29 00:06:00,
2013-04-28 20:11:00,56.2,49.8,29.97,ESE,119,1.0,1.0,79,0.00,,,0.18,Wunderground v.1.15,2013-04-29 00:11:00,
2013-04-28 20:16:00,56.0,49.6,29.97,South,177,1.0,1.0,79,0.00,,,0.18,Wunderground v.1.15,2013-04-29 00:16:00,
2013-04-28 20:22:00,55.9,49.5,29.97,SW,219,1.0,2.0,79,0.00,,,0.18,Wunderground v.1.15,2013-04-29 00:22:00,
2013-04-28 20:27:00,55.9,49.5,29.97,SE,128,1.0,4.0,79,0.00,,,0.18,Wunderground v.1.15,2013-04-29 00:27:00,
2013-04-28 20:32:00,55.9,49.5,29.97,ENE,61,2.0,5.0,79,0.00,,,0.18,Wunderground v.1.15,2013-04-29 00:32:00,
2013-04-28 20:37:00,55.9,49.5,29.98,South,185,2.0,5.0,79,0.00,,,0.18,Wunderground v.1.15,2013-04-29 00:37:00,
2013-04-28 20:43:00,55.9,49.5,29.98,SSW,205,1.0,7.0,79,0.00,,,0.18,Wunderground v.1.15,2013-04-29 00:43:00,
2013-04-28 20:48:00,55.8,49.4,29.98,South,178,1.0,7.0,79,0.00,,,0.18,Wunderground v.1.15,2013-04-29 00:48:00,
2013-04-28 20:53:00,55.7,49.3,29.98,NE,40,1.0,1.0,79,0.00,,,0.18,Wunderground v.1.15,2013-04-29 00:53:00,
2013-04-28 20:59:00,55.7,49.3,29.98,SSW,210,1.0,2.0,79,0.00,,,0.18,Wunderground v.1.15,2013-04-29 00:59:00,
2013-04-28 21:04:00,55.7,49.3,29.98,East,100,1.0,2.0,79,0.00,,,0.18,Wunderground v.1.15,2013-04-29 01:04:00,
2013-04-28 21:09:00,55.7,49.3,29.98,SSW,207,1.0,2.0,79,0.00,,,0.18,Wunderground v.1.15,2013-04-29 01:09:00,
2013-04-28 21:15:00,55.7,49.3,29.98,East,83,1.0,3.0,79,0.00,,,0.18,Wunderground v.1.15,2013-04-29 01:15:00,
2013-04-28 21:20:00,55.5,49.1,29.98,East,87,1.0,1.0,79,0.00,,,0.18,Wunderground v.1.15,2013-04-29 01:20:00,
2013-04-28 21:25:00,55.4,49.0,29.98,SSW,201,1.0,1.0,79,0.00,,,0.18,Wunderground v.1.15,2013-04-29 01:25:00,
2013-04-28 21:31:00,55.4,49.0,29.98,ESE,107,0.0,1.0,79,0.00,,,0.18,Wunderground v.1.15,2013-04-29 01:31:00,
2013-04-28 21:37:00,55.4,49.0,29.98,SSW,197,0.0,1.0,79,0.00,,,0.18,Wunderground v.1.15,2013-04-29 01:37:00,
2013-04-28 21:42:00,55.3,48.9,29.98,NNE,25,1.0,2.0,79,0.00,,,0.18,Wunderground v.1.15,2013-04-29 01:42:00,
2013-04-28 21:47:00,55.4,49.0,29.98,ESE,107,1.0,2.0,79,0.00,,,0.18,Wunderground v.1.15,2013-04-29 01:47:00,
2013-04-28 21:52:00,55.4,49.0,29.98,South,189,1.0,4.0,79,0.00,,,0.18,Wunderground v.1.15,2013-04-29 01:52:00,
2013-04-28 21:58:00,55.5,48.8,29.99,NE,37,1.0,5.0,78,0.00,,,0.18,Wunderground v.1.15,2013-04-29 01:58:00,
2013-04-28 22:03:00,55.5,48.8,29.99,WNW,288,1.0,2.0,78,0.00,,,0.18,Wunderground v.1.15,2013-04-29 02:03:00,
2013-04-28 22:08:00,55.5,48.8,29.99,NNE,12,1.0,3.0,78,0.00,,,0.18,Wunderground v.1.15,2013-04-29 02:08:00,
2013-04-28 22:13:00,55.4,48.7,29.99,SSW,192,1.0,1.0,78,0.00,,,0.18,Wunderground v.1.15,2013-04-29 02:13:00,
2013-04-28 22:19:00,55.3,48.6,29.99,SW,232,0.0,2.0,78,0.00,,,0.18,Wunderground v.1.15,2013-04-29 02:19:00,
2013-04-28 22:24:00,55.3,48.6,29.99,SW,214,1.0,4.0,78,0.00,,,0.18,Wunderground v.1.15,2013-04-29 02:24:00,
2013-04-28 22:29:00,55.2,48.8,29.99,NE,36,1.0,4.0,79,0.00,,,0.18,Wunderground v.1.15,2013-04-29 02:29:00,
2013-04-28 22:34:00,55.1,48.7,29.99,SE,127,1.0,5.0,79,0.00,,,0.18,Wunderground v.1.15,2013-04-29 02:34:00,
2013-04-28 22:40:00,55.0,48.6,29.99,SSE,156,0.0,1.0,79,0.00,,,0.18,Wunderground v.1.15,2013-04-29 02:40:00,
2013-04-28 22:45:00,54.9,48.2,29.99,ESE,120,0.0,2.0,78,0.00,,,0.18,Wunderground v.1.15,2013-04-29 02:45:00,
2013-04-28 22:50:00,54.9,48.2,29.99,SE,142,1.0,1.0,78,0.00,,,0.18,Wunderground v.1.15,2013-04-29 02:50:00,
2013-04-28 22:56:00,54.8,48.1,29.98,NE,44,0.0,1.0,78,0.00,,,0.18,Wunderground v.1.15,2013-04-29 02:56:00,
2013-04-28 23:02:00,54.7,48.3,29.98,ESE,103,0.0,0.0,79,0.00,,,0.18,Wunderground v.1.15,2013-04-29 03:02:00,
2013-04-28 23:07:00,54.6,48.2,29.98,ESE,116,0.0,2.0,79,0.00,,,0.18,Wunderground v.1.15,2013-04-29 03:07:00,
2013-04-28 23:12:00,54.7,48.3,29.98,SE,128,1.0,2.0,79,0.00,,,0.18,Wunderground v.1.15,2013-04-29 03:12:00,
2013-04-28 23:18:00,54.8,48.1,29.98,NE,54,1.0,3.0,78,0.00,,,0.18,Wunderground v.1.15,2013-04-29 03:18:00,
2013-04-28 23:23:00,54.9,48.2,29.98,NE,39,1.0,3.0,78,0.00,,,0.18,Wunderground v.1.15,2013-04-29 03:23:00,
2013-04-28 23:28:00,54.8,48.4,29.98,SE,143,0.0,3.0,79,0.00,,,0.18,Wunderground v.1.15,2013-04-29 03:28:00,
2013-04-28 23:34:00,54.8,48.1,29.98,SSE,148,0.0,1.0,78,0.00,,,0.18,Wunderground v.1.15,2013-04-29 03:34:00,
2013-04-28 23:39:00,54.8,48.1,29.97,NE,46,0.0,1.0,78,0.00,,,0.18,Wunderground v.1.15,2013-04-29 03:39:00,
2013-04-28 23:45:00,54.9,48.2,29.98,SE,132,0.0,0.0,78,0.00,,,0.18,Wunderground v.1.15,2013-04-29 03:45:00,
2013-04-28 23:50:00,54.9,48.2,29.97,SSW,200,0.0,2.0,78,0.00,,,0.18,Wunderground v.1.15,2013-04-29 03:50:00,
2013-04-28 23:55:00,54.9,48.2,29.97,NE,49,1.0,2.0,78,0.00,,,0.18,Wunderground v.1.15,2013-04-29 03:55:00,